Year,Month,Day,Hour,Minute,Value (Times are PST for temperature in C)
2015,06,27,00,00,20.40
2015,06,27,00,01,20.40
2015,06,27,00,02,20.40
2015,06,27,00,03,20.40
2015,06,27,00,04,20.40
2015,06,27,00,05,20.30
2015,06,27,00,06,20.30
2015,06,27,00,07,20.30
2015,06,27,00,08,20.30
2015,06,27,00,09,20.30
2015,06,27,00,10,20.20
2015,06,27,00,11,20.20
2015,06,27,00,12,20.20
2015,06,27,00,13,20.20
2015,06,27,00,14,20.10
2015,06,27,00,15,20.10
2015,06,27,00,16,20.10
2015,06,27,00,17,20.10
2015,06,27,00,18,20.10
2015,06,27,00,19,20.10
2015,06,27,00,20,20.10
2015,06,27,00,21,20.20
2015,06,27,00,22,20.20
2015,06,27,00,23,20.20
2015,06,27,00,24,20.20
2015,06,27,00,25,20.20
2015,06,27,00,26,20.20
2015,06,27,00,27,20.30
2015,06,27,00,28,20.30
2015,06,27,00,29,20.30
2015,06,27,00,30,20.30
2015,06,27,00,31,20.30
2015,06,27,00,32,20.30
2015,06,27,00,33,20.30
2015,06,27,00,34,20.30
2015,06,27,00,35,20.30
2015,06,27,00,36,20.30
2015,06,27,00,37,20.30
2015,06,27,00,38,20.30
2015,06,27,00,39,20.30
2015,06,27,00,40,20.30
2015,06,27,00,41,20.30
2015,06,27,00,42,20.30
2015,06,27,00,43,20.30
2015,06,27,00,44,20.30
2015,06,27,00,45,20.30
2015,06,27,00,46,20.30
2015,06,27,00,47,20.30
2015,06,27,00,48,20.30
2015,06,27,00,49,20.30
2015,06,27,00,50,20.30
2015,06,27,00,51,20.30
2015,06,27,00,52,20.30
2015,06,27,00,53,20.30
2015,06,27,00,54,20.30
2015,06,27,00,55,20.30
2015,06,27,00,56,20.30
2015,06,27,00,57,20.30
2015,06,27,00,58,20.30
2015,06,27,00,59,20.30
2015,06,27,01,00,20.30
2015,06,27,01,01,20.40
2015,06,27,01,02,20.40
2015,06,27,01,03,20.40
2015,06,27,01,04,20.40
2015,06,27,01,05,20.40
2015,06,27,01,06,20.40
2015,06,27,01,07,20.40
2015,06,27,01,08,20.40
2015,06,27,01,09,20.40
2015,06,27,01,10,20.40
2015,06,27,01,11,20.40
2015,06,27,01,12,20.40
2015,06,27,01,13,20.40
2015,06,27,01,14,20.30
2015,06,27,01,15,20.30
2015,06,27,01,16,20.30
2015,06,27,01,17,20.30
2015,06,27,01,18,20.30
2015,06,27,01,19,20.30
2015,06,27,01,20,20.30
2015,06,27,01,21,20.30
2015,06,27,01,22,20.30
2015,06,27,01,23,20.20
2015,06,27,01,24,20.20
2015,06,27,01,25,20.20
2015,06,27,01,26,20.20
2015,06,27,01,27,20.20
2015,06,27,01,28,20.20
2015,06,27,01,29,20.20
2015,06,27,01,30,20.20
2015,06,27,01,31,20.10
2015,06,27,01,32,20.10
2015,06,27,01,33,20.10
2015,06,27,01,34,20.10
2015,06,27,01,35,20.00
2015,06,27,01,36,20.00
2015,06,27,01,37,20.00
2015,06,27,01,38,20.00
2015,06,27,01,39,20.00
2015,06,27,01,40,19.90
2015,06,27,01,41,19.90
2015,06,27,01,42,19.90
2015,06,27,01,43,19.90
2015,06,27,01,44,19.90
2015,06,27,01,45,19.90
2015,06,27,01,46,19.80
2015,06,27,01,47,19.80
2015,06,27,01,48,19.80
2015,06,27,01,49,19.80
2015,06,27,01,50,19.80
2015,06,27,01,51,19.80
2015,06,27,01,52,19.80
2015,06,27,01,53,19.80
2015,06,27,01,54,19.70
2015,06,27,01,55,19.70
2015,06,27,01,56,19.70
2015,06,27,01,57,19.70
2015,06,27,01,58,19.70
2015,06,27,01,59,19.70
2015,06,27,02,00,19.70
2015,06,27,02,01,19.70
2015,06,27,02,02,19.70
2015,06,27,02,03,19.60
2015,06,27,02,04,19.60
2015,06,27,02,05,19.60
2015,06,27,02,06,19.60
2015,06,27,02,07,19.60
2015,06,27,02,08,19.60
2015,06,27,02,09,19.60
2015,06,27,02,10,19.60
2015,06,27,02,11,19.60
2015,06,27,02,12,19.50
2015,06,27,02,13,19.50
2015,06,27,02,14,19.50
2015,06,27,02,15,19.50
2015,06,27,02,16,19.50
2015,06,27,02,17,19.50
2015,06,27,02,18,19.50
2015,06,27,02,19,19.40
2015,06,27,02,20,19.40
2015,06,27,02,21,19.40
2015,06,27,02,22,19.40
2015,06,27,02,23,19.40
2015,06,27,02,24,19.40
2015,06,27,02,25,19.40
2015,06,27,02,26,19.40
2015,06,27,02,27,19.40
2015,06,27,02,28,19.30
2015,06,27,02,29,19.30
2015,06,27,02,30,19.30
2015,06,27,02,31,19.30
2015,06,27,02,32,19.30
2015,06,27,02,33,19.30
2015,06,27,02,34,19.30
2015,06,27,02,35,19.30
2015,06,27,02,36,19.30
2015,06,27,02,37,19.30
2015,06,27,02,38,19.20
2015,06,27,02,39,19.20
2015,06,27,02,40,19.20
2015,06,27,02,41,19.20
2015,06,27,02,42,19.20
2015,06,27,02,43,19.20
2015,06,27,02,44,19.20
2015,06,27,02,45,19.20
2015,06,27,02,46,19.20
2015,06,27,02,47,19.20
2015,06,27,02,48,19.10
2015,06,27,02,49,19.10
2015,06,27,02,50,19.10
2015,06,27,02,51,19.10
2015,06,27,02,52,19.10
2015,06,27,02,53,19.10
2015,06,27,02,54,19.10
2015,06,27,02,55,19.00
2015,06,27,02,56,19.00
2015,06,27,02,57,19.00
2015,06,27,02,58,19.00
2015,06,27,02,59,18.90
2015,06,27,03,00,18.90
2015,06,27,03,01,18.90
2015,06,27,03,02,18.90
2015,06,27,03,03,18.90
2015,06,27,03,04,18.90
2015,06,27,03,05,18.80
2015,06,27,03,06,18.80
2015,06,27,03,07,18.80
2015,06,27,03,08,18.80
2015,06,27,03,09,18.80
2015,06,27,03,10,18.80
2015,06,27,03,11,18.80
2015,06,27,03,12,18.80
2015,06,27,03,13,18.70
2015,06,27,03,14,18.70
2015,06,27,03,15,18.70
2015,06,27,03,16,18.70
2015,06,27,03,17,18.70
2015,06,27,03,18,18.70
2015,06,27,03,19,18.70
2015,06,27,03,20,18.60
2015,06,27,03,21,18.60
2015,06,27,03,22,18.60
2015,06,27,03,23,18.60
2015,06,27,03,24,18.60
2015,06,27,03,25,18.60
2015,06,27,03,26,18.60
2015,06,27,03,27,18.60
2015,06,27,03,28,18.60
2015,06,27,03,29,18.60
2015,06,27,03,30,18.60
2015,06,27,03,31,18.50
2015,06,27,03,32,18.50
2015,06,27,03,33,18.50
2015,06,27,03,34,18.50
2015,06,27,03,35,18.50
2015,06,27,03,36,18.50
2015,06,27,03,37,18.40
2015,06,27,03,38,18.40
2015,06,27,03,39,18.40
2015,06,27,03,40,18.40
2015,06,27,03,41,18.40
2015,06,27,03,42,18.40
2015,06,27,03,43,18.40
2015,06,27,03,44,18.30
2015,06,27,03,45,18.30
2015,06,27,03,46,18.30
2015,06,27,03,47,18.30
2015,06,27,03,48,18.30
2015,06,27,03,49,18.30
2015,06,27,03,50,18.30
2015,06,27,03,51,18.20
2015,06,27,03,52,18.20
2015,06,27,03,53,18.20
2015,06,27,03,54,18.20
2015,06,27,03,55,18.20
2015,06,27,03,56,18.20
2015,06,27,03,57,18.20
2015,06,27,03,58,18.10
2015,06,27,03,59,18.10
2015,06,27,04,00,18.10
2015,06,27,04,01,18.10
2015,06,27,04,02,18.10
2015,06,27,04,03,18.10
2015,06,27,04,04,18.10
2015,06,27,04,05,18.00
2015,06,27,04,06,18.00
2015,06,27,04,07,18.00
2015,06,27,04,08,18.00
2015,06,27,04,09,17.90
2015,06,27,04,10,17.90
2015,06,27,04,11,17.90
2015,06,27,04,12,17.90
2015,06,27,04,13,17.90
2015,06,27,04,14,17.90
2015,06,27,04,15,17.90
2015,06,27,04,16,17.80
2015,06,27,04,17,17.80
2015,06,27,04,18,17.80
2015,06,27,04,19,17.80
2015,06,27,04,20,17.80
2015,06,27,04,21,17.80
2015,06,27,04,22,17.80
2015,06,27,04,23,17.70
2015,06,27,04,24,17.70
2015,06,27,04,25,17.70
2015,06,27,04,26,17.70
2015,06,27,04,27,17.70
2015,06,27,04,28,17.70
2015,06,27,04,29,17.60
2015,06,27,04,30,17.60
2015,06,27,04,31,17.60
2015,06,27,04,32,17.60
2015,06,27,04,33,17.60
2015,06,27,04,34,17.60
2015,06,27,04,35,17.60
2015,06,27,04,36,17.60
2015,06,27,04,37,17.50
2015,06,27,04,38,17.50
2015,06,27,04,39,17.50
2015,06,27,04,40,17.50
2015,06,27,04,41,17.50
2015,06,27,04,42,17.50
2015,06,27,04,43,17.50
2015,06,27,04,44,17.40
2015,06,27,04,45,17.40
2015,06,27,04,46,17.40
2015,06,27,04,47,17.40
2015,06,27,04,48,17.30
2015,06,27,04,49,17.30
2015,06,27,04,50,17.30
2015,06,27,04,51,17.30
2015,06,27,04,52,17.30
2015,06,27,04,53,17.20
2015,06,27,04,54,17.20
2015,06,27,04,55,17.20
2015,06,27,04,56,17.20
2015,06,27,04,57,17.20
2015,06,27,04,58,17.20
2015,06,27,04,59,17.10
2015,06,27,05,00,17.10
2015,06,27,05,01,17.10
2015,06,27,05,02,17.10
2015,06,27,05,03,17.10
2015,06,27,05,04,17.10
2015,06,27,05,05,17.00
2015,06,27,05,06,17.00
2015,06,27,05,07,17.00
2015,06,27,05,08,17.00
2015,06,27,05,09,17.00
2015,06,27,05,10,17.00
2015,06,27,05,11,17.00
2015,06,27,05,12,16.90
2015,06,27,05,13,16.90
2015,06,27,05,14,16.90
2015,06,27,05,15,16.90
2015,06,27,05,16,16.90
2015,06,27,05,17,16.90
2015,06,27,05,18,16.90
2015,06,27,05,19,16.80
2015,06,27,05,20,16.80
2015,06,27,05,21,16.80
2015,06,27,05,22,16.80
2015,06,27,05,23,16.80
2015,06,27,05,24,16.80
2015,06,27,05,25,16.80
2015,06,27,05,26,16.70
2015,06,27,05,27,16.70
2015,06,27,05,28,16.70
2015,06,27,05,29,16.70
2015,06,27,05,30,16.70
2015,06,27,05,31,16.70
2015,06,27,05,32,16.70
2015,06,27,05,33,16.70
2015,06,27,05,34,16.70
2015,06,27,05,35,16.60
2015,06,27,05,36,16.60
2015,06,27,05,37,16.60
2015,06,27,05,38,16.50
2015,06,27,05,39,16.50
2015,06,27,05,40,16.50
2015,06,27,05,41,16.40
2015,06,27,05,42,16.40
2015,06,27,05,43,16.40
2015,06,27,05,44,16.40
2015,06,27,05,45,16.40
2015,06,27,05,46,16.50
2015,06,27,05,47,16.50
2015,06,27,05,48,16.50
2015,06,27,05,49,16.50
2015,06,27,05,50,16.60
2015,06,27,05,51,16.60
2015,06,27,05,52,16.60
2015,06,27,05,53,16.60
2015,06,27,05,54,16.60
2015,06,27,05,55,16.70
2015,06,27,05,56,16.70
2015,06,27,05,57,16.70
2015,06,27,05,58,16.70
2015,06,27,05,59,16.70
2015,06,27,06,00,16.70
2015,06,27,06,01,16.70
2015,06,27,06,02,16.70
2015,06,27,06,03,16.70
2015,06,27,06,04,16.70
2015,06,27,06,05,16.70
2015,06,27,06,06,16.80
2015,06,27,06,07,16.80
2015,06,27,06,08,16.80
2015,06,27,06,09,16.80
2015,06,27,06,10,16.90
2015,06,27,06,11,16.90
2015,06,27,06,12,16.90
2015,06,27,06,13,17.00
2015,06,27,06,14,17.00
2015,06,27,06,15,17.00
2015,06,27,06,16,17.10
2015,06,27,06,17,17.10
2015,06,27,06,18,17.10
2015,06,27,06,19,17.10
2015,06,27,06,20,17.10
2015,06,27,06,21,17.10
2015,06,27,06,22,17.20
2015,06,27,06,23,17.20
2015,06,27,06,24,17.20
2015,06,27,06,25,17.20
2015,06,27,06,26,17.20
2015,06,27,06,27,17.30
2015,06,27,06,28,17.30
2015,06,27,06,29,17.30
2015,06,27,06,30,17.30
2015,06,27,06,31,17.30
2015,06,27,06,32,17.40
2015,06,27,06,33,17.40
2015,06,27,06,34,17.40
2015,06,27,06,35,17.40
2015,06,27,06,36,17.40
2015,06,27,06,37,17.50
2015,06,27,06,38,17.50
2015,06,27,06,39,17.50
2015,06,27,06,40,17.50
2015,06,27,06,41,17.50
2015,06,27,06,42,17.60
2015,06,27,06,43,17.60
2015,06,27,06,44,17.60
2015,06,27,06,45,17.60
2015,06,27,06,46,17.70
2015,06,27,06,47,17.70
2015,06,27,06,48,17.70
2015,06,27,06,49,17.70
2015,06,27,06,50,17.70
2015,06,27,06,51,17.70
2015,06,27,06,52,17.80
2015,06,27,06,53,17.80
2015,06,27,06,54,17.80
2015,06,27,06,55,17.80
2015,06,27,06,56,17.90
2015,06,27,06,57,17.90
2015,06,27,06,58,18.00
2015,06,27,06,59,18.00
2015,06,27,07,00,18.00
2015,06,27,07,01,18.00
2015,06,27,07,02,18.00
2015,06,27,07,03,18.00
2015,06,27,07,04,18.00
2015,06,27,07,05,18.00
2015,06,27,07,06,18.00
2015,06,27,07,07,18.00
2015,06,27,07,08,17.90
2015,06,27,07,09,17.90
2015,06,27,07,10,17.90
2015,06,27,07,11,17.90
2015,06,27,07,12,17.90
2015,06,27,07,13,17.90
2015,06,27,07,14,18.00
2015,06,27,07,15,18.00
2015,06,27,07,16,18.00
2015,06,27,07,17,18.00
2015,06,27,07,18,18.00
2015,06,27,07,19,18.00
2015,06,27,07,20,18.00
2015,06,27,07,21,18.00
2015,06,27,07,22,18.00
2015,06,27,07,23,18.00
2015,06,27,07,24,18.00
2015,06,27,07,25,18.00
2015,06,27,07,26,18.00
2015,06,27,07,27,18.10
2015,06,27,07,28,18.10
2015,06,27,07,29,18.20
2015,06,27,07,30,18.20
2015,06,27,07,31,18.30
2015,06,27,07,32,18.30
2015,06,27,07,33,18.30
2015,06,27,07,34,18.40
2015,06,27,07,35,18.40
2015,06,27,07,36,18.40
2015,06,27,07,37,18.50
2015,06,27,07,38,18.50
2015,06,27,07,39,18.60
2015,06,27,07,40,18.60
2015,06,27,07,41,18.60
2015,06,27,07,42,18.60
2015,06,27,07,43,18.60
2015,06,27,07,44,18.60
2015,06,27,07,45,18.70
2015,06,27,07,46,18.70
2015,06,27,07,47,18.70
2015,06,27,07,48,18.80
2015,06,27,07,49,18.80
2015,06,27,07,50,18.80
2015,06,27,07,51,18.90
2015,06,27,07,52,18.90
2015,06,27,07,53,19.00
2015,06,27,07,54,19.10
2015,06,27,07,55,19.10
2015,06,27,07,56,19.20
2015,06,27,07,57,19.20
2015,06,27,07,58,19.20
2015,06,27,07,59,19.20
2015,06,27,08,00,19.30
2015,06,27,08,01,19.30
2015,06,27,08,02,19.30
2015,06,27,08,03,19.30
2015,06,27,08,04,19.40
2015,06,27,08,05,19.40
2015,06,27,08,06,19.40
2015,06,27,08,07,19.40
2015,06,27,08,08,19.40
2015,06,27,08,09,19.40
2015,06,27,08,10,19.50
2015,06,27,08,11,19.50
2015,06,27,08,12,19.50
2015,06,27,08,13,19.60
2015,06,27,08,14,19.60
2015,06,27,08,15,19.60
2015,06,27,08,16,19.70
2015,06,27,08,17,19.70
2015,06,27,08,18,19.80
2015,06,27,08,19,19.80
2015,06,27,08,20,19.80
2015,06,27,08,21,19.90
2015,06,27,08,22,19.90
2015,06,27,08,23,20.00
2015,06,27,08,24,20.00
2015,06,27,08,25,20.10
2015,06,27,08,26,20.10
2015,06,27,08,27,20.20
2015,06,27,08,28,20.20
2015,06,27,08,29,20.20
2015,06,27,08,30,20.30
2015,06,27,08,31,20.30
2015,06,27,08,32,20.30
2015,06,27,08,33,20.40
2015,06,27,08,34,20.40
2015,06,27,08,35,20.40
2015,06,27,08,36,20.40
2015,06,27,08,37,20.50
2015,06,27,08,38,20.60
2015,06,27,08,39,20.60
2015,06,27,08,40,20.60
2015,06,27,08,41,20.60
2015,06,27,08,42,20.60
2015,06,27,08,43,20.70
2015,06,27,08,44,20.70
2015,06,27,08,45,20.70
2015,06,27,08,46,20.80
2015,06,27,08,47,20.80
2015,06,27,08,48,20.90
2015,06,27,08,49,21.00
2015,06,27,08,50,21.00
2015,06,27,08,51,21.10
2015,06,27,08,52,21.10
2015,06,27,08,53,21.20
2015,06,27,08,54,21.20
2015,06,27,08,55,21.20
2015,06,27,08,56,21.30
2015,06,27,08,57,21.30
2015,06,27,08,58,21.40
2015,06,27,08,59,21.40
2015,06,27,09,00,21.50
2015,06,27,09,01,21.50
2015,06,27,09,02,21.50
2015,06,27,09,03,21.60
2015,06,27,09,04,21.60
2015,06,27,09,05,21.70
2015,06,27,09,06,21.70
2015,06,27,09,07,21.70
2015,06,27,09,08,21.70
2015,06,27,09,09,21.80
2015,06,27,09,10,21.80
2015,06,27,09,11,21.80
2015,06,27,09,12,21.80
2015,06,27,09,13,21.80
2015,06,27,09,14,21.80
2015,06,27,09,15,21.80
2015,06,27,09,16,21.80
2015,06,27,09,17,21.80
2015,06,27,09,18,21.90
2015,06,27,09,19,21.90
2015,06,27,09,20,21.90
2015,06,27,09,21,22.00
2015,06,27,09,22,22.00
2015,06,27,09,23,22.00
2015,06,27,09,24,22.00
2015,06,27,09,25,22.10
2015,06,27,09,26,22.10
2015,06,27,09,27,22.20
2015,06,27,09,28,22.20
2015,06,27,09,29,22.30
2015,06,27,09,30,22.30
2015,06,27,09,31,22.30
2015,06,27,09,32,22.40
2015,06,27,09,33,22.40
2015,06,27,09,34,22.40
2015,06,27,09,35,22.50
2015,06,27,09,36,22.50
2015,06,27,09,37,22.60
2015,06,27,09,38,22.60
2015,06,27,09,39,22.70
2015,06,27,09,40,22.70
2015,06,27,09,41,22.70
2015,06,27,09,42,22.70
2015,06,27,09,43,22.80
2015,06,27,09,44,22.80
2015,06,27,09,45,22.80
2015,06,27,09,46,22.80
2015,06,27,09,47,22.90
2015,06,27,09,48,22.90
2015,06,27,09,49,22.90
2015,06,27,09,50,23.00
2015,06,27,09,51,23.10
2015,06,27,09,52,23.10
2015,06,27,09,53,23.10
2015,06,27,09,54,23.10
2015,06,27,09,55,23.20
2015,06,27,09,56,23.20
2015,06,27,09,57,23.10
2015,06,27,09,58,23.10
2015,06,27,09,59,23.10
2015,06,27,10,00,23.10
2015,06,27,10,01,23.10
2015,06,27,10,02,23.10
2015,06,27,10,03,23.10
2015,06,27,10,04,23.20
2015,06,27,10,05,23.20
2015,06,27,10,06,23.30
2015,06,27,10,07,23.40
2015,06,27,10,08,23.50
2015,06,27,10,09,23.50
2015,06,27,10,10,23.60
2015,06,27,10,11,23.60
2015,06,27,10,12,23.60
2015,06,27,10,13,23.70
2015,06,27,10,14,23.70
2015,06,27,10,15,23.80
2015,06,27,10,16,23.80
2015,06,27,10,17,23.80
2015,06,27,10,18,23.90
2015,06,27,10,19,23.90
2015,06,27,10,20,24.00
2015,06,27,10,21,24.10
2015,06,27,10,22,24.20
2015,06,27,10,23,24.20
2015,06,27,10,24,24.30
2015,06,27,10,25,24.40
2015,06,27,10,26,24.50
2015,06,27,10,27,24.50
2015,06,27,10,28,24.60
2015,06,27,10,29,24.70
2015,06,27,10,30,24.70
2015,06,27,10,31,24.70
2015,06,27,10,32,24.70
2015,06,27,10,33,24.70
2015,06,27,10,34,24.70
2015,06,27,10,35,24.70
2015,06,27,10,36,24.80
2015,06,27,10,37,24.80
2015,06,27,10,38,24.90
2015,06,27,10,39,24.90
2015,06,27,10,40,24.90
2015,06,27,10,41,25.00
2015,06,27,10,42,25.00
2015,06,27,10,43,25.00
2015,06,27,10,44,25.00
2015,06,27,10,45,25.10
2015,06,27,10,46,25.10
2015,06,27,10,47,25.20
2015,06,27,10,48,25.30
2015,06,27,10,49,25.30
2015,06,27,10,50,25.40
2015,06,27,10,51,25.40
2015,06,27,10,52,25.40
2015,06,27,10,53,25.50
2015,06,27,10,54,25.50
2015,06,27,10,55,25.60
2015,06,27,10,56,25.70
2015,06,27,10,57,25.70
2015,06,27,10,58,25.80
2015,06,27,10,59,25.80
2015,06,27,11,00,25.80
2015,06,27,11,01,25.80
2015,06,27,11,02,25.80
2015,06,27,11,03,25.80
2015,06,27,11,04,25.80
2015,06,27,11,05,25.90
2015,06,27,11,06,25.90
2015,06,27,11,07,25.90
2015,06,27,11,08,25.90
2015,06,27,11,09,26.00
2015,06,27,11,10,26.00
2015,06,27,11,11,26.10
2015,06,27,11,12,26.10
2015,06,27,11,13,26.20
2015,06,27,11,14,26.20
2015,06,27,11,15,26.30
2015,06,27,11,16,26.40
2015,06,27,11,17,26.50
2015,06,27,11,18,26.50
2015,06,27,11,19,26.60
2015,06,27,11,20,26.60
2015,06,27,11,21,26.60
2015,06,27,11,22,26.60
2015,06,27,11,23,26.60
2015,06,27,11,24,26.60
2015,06,27,11,25,26.70
2015,06,27,11,26,26.70
2015,06,27,11,27,26.80
2015,06,27,11,28,26.90
2015,06,27,11,29,26.90
2015,06,27,11,30,27.00
2015,06,27,11,31,27.00
2015,06,27,11,32,27.10
2015,06,27,11,33,27.10
2015,06,27,11,34,27.10
2015,06,27,11,35,27.10
2015,06,27,11,36,27.00
2015,06,27,11,37,26.90
2015,06,27,11,38,26.90
2015,06,27,11,39,27.00
2015,06,27,11,40,27.00
2015,06,27,11,41,27.10
2015,06,27,11,42,27.20
2015,06,27,11,43,27.30
2015,06,27,11,44,27.30
2015,06,27,11,45,27.30
2015,06,27,11,46,27.30
2015,06,27,11,47,27.30
2015,06,27,11,48,27.30
2015,06,27,11,49,27.30
2015,06,27,11,50,27.40
2015,06,27,11,51,27.40
2015,06,27,11,52,27.40
2015,06,27,11,53,27.40
2015,06,27,11,54,27.40
2015,06,27,11,55,27.40
2015,06,27,11,56,27.50
2015,06,27,11,57,27.60
2015,06,27,11,58,27.70
2015,06,27,11,59,27.70
2015,06,27,12,00,27.70
2015,06,27,12,01,27.80
2015,06,27,12,02,27.80
2015,06,27,12,03,27.80
2015,06,27,12,04,27.80
2015,06,27,12,05,27.90
2015,06,27,12,06,28.00
2015,06,27,12,07,28.10
2015,06,27,12,08,28.10
2015,06,27,12,09,28.20
2015,06,27,12,10,28.20
2015,06,27,12,11,28.20
2015,06,27,12,12,28.20
2015,06,27,12,13,28.30
2015,06,27,12,14,28.30
2015,06,27,12,15,28.30
2015,06,27,12,16,28.30
2015,06,27,12,17,28.30
2015,06,27,12,18,28.30
2015,06,27,12,19,28.40
2015,06,27,12,20,28.40
2015,06,27,12,21,28.40
2015,06,27,12,22,28.50
2015,06,27,12,23,28.50
2015,06,27,12,24,28.50
2015,06,27,12,25,28.50
2015,06,27,12,26,28.60
2015,06,27,12,27,28.60
2015,06,27,12,28,28.60
2015,06,27,12,29,28.60
2015,06,27,12,30,28.70
2015,06,27,12,31,28.70
2015,06,27,12,32,28.70
2015,06,27,12,33,28.70
2015,06,27,12,34,28.70
2015,06,27,12,35,28.60
2015,06,27,12,36,28.60
2015,06,27,12,37,28.50
2015,06,27,12,38,28.50
2015,06,27,12,39,28.50
2015,06,27,12,40,28.60
2015,06,27,12,41,28.60
2015,06,27,12,42,28.70
2015,06,27,12,43,28.70
2015,06,27,12,44,28.80
2015,06,27,12,45,28.80
2015,06,27,12,46,28.90
2015,06,27,12,47,28.90
2015,06,27,12,48,29.00
2015,06,27,12,49,29.00
2015,06,27,12,50,29.10
2015,06,27,12,51,29.10
2015,06,27,12,52,29.10
2015,06,27,12,53,29.10
2015,06,27,12,54,29.10
2015,06,27,12,55,29.00
2015,06,27,12,56,29.00
2015,06,27,12,57,29.00
2015,06,27,12,58,29.00
2015,06,27,12,59,29.10
2015,06,27,13,00,29.10
2015,06,27,13,01,29.10
2015,06,27,13,02,29.10
2015,06,27,13,03,29.10
2015,06,27,13,04,29.10
2015,06,27,13,05,29.00
2015,06,27,13,06,28.90
2015,06,27,13,07,28.80
2015,06,27,13,08,28.80
2015,06,27,13,09,28.80
2015,06,27,13,10,28.80
2015,06,27,13,11,28.90
2015,06,27,13,12,29.00
2015,06,27,13,13,29.10
2015,06,27,13,14,29.10
2015,06,27,13,15,29.10
2015,06,27,13,16,29.10
2015,06,27,13,17,29.10
2015,06,27,13,18,29.00
2015,06,27,13,19,29.00
2015,06,27,13,20,29.00
2015,06,27,13,21,29.00
2015,06,27,13,22,29.00
2015,06,27,13,23,29.00
2015,06,27,13,24,29.10
2015,06,27,13,25,29.10
2015,06,27,13,26,29.20
2015,06,27,13,27,29.30
2015,06,27,13,28,29.40
2015,06,27,13,29,29.50
2015,06,27,13,30,29.50
2015,06,27,13,31,29.60
2015,06,27,13,32,29.60
2015,06,27,13,33,29.60
2015,06,27,13,34,29.70
2015,06,27,13,35,29.70
2015,06,27,13,36,29.70
2015,06,27,13,37,29.70
2015,06,27,13,38,29.70
2015,06,27,13,39,29.80
2015,06,27,13,40,29.80
2015,06,27,13,41,29.80
2015,06,27,13,42,29.80
2015,06,27,13,43,29.90
2015,06,27,13,44,29.90
2015,06,27,13,45,29.90
2015,06,27,13,46,29.90
2015,06,27,13,47,29.90
2015,06,27,13,48,29.80
2015,06,27,13,49,29.80
2015,06,27,13,50,29.70
2015,06,27,13,51,29.70
2015,06,27,13,52,29.80
2015,06,27,13,53,29.80
2015,06,27,13,54,29.80
2015,06,27,13,55,29.90
2015,06,27,13,56,29.90
2015,06,27,13,57,29.90
2015,06,27,13,58,29.90
2015,06,27,13,59,29.90
2015,06,27,14,00,30.00
2015,06,27,14,01,30.10
2015,06,27,14,02,30.20
2015,06,27,14,03,30.20
2015,06,27,14,04,30.30
2015,06,27,14,05,30.30
2015,06,27,14,06,30.30
2015,06,27,14,07,30.30
2015,06,27,14,08,30.30
2015,06,27,14,09,30.30
2015,06,27,14,10,30.40
2015,06,27,14,11,30.40
2015,06,27,14,12,30.50
2015,06,27,14,13,30.60
2015,06,27,14,14,30.70
2015,06,27,14,15,30.70
2015,06,27,14,16,30.70
2015,06,27,14,17,30.70
2015,06,27,14,18,30.70
2015,06,27,14,19,30.70
2015,06,27,14,20,30.60
2015,06,27,14,21,30.60
2015,06,27,14,22,30.50
2015,06,27,14,23,30.40
2015,06,27,14,24,30.30
2015,06,27,14,25,30.20
2015,06,27,14,26,30.20
2015,06,27,14,27,30.20
2015,06,27,14,28,30.10
2015,06,27,14,29,30.20
2015,06,27,14,30,30.20
2015,06,27,14,31,30.20
2015,06,27,14,32,30.10
2015,06,27,14,33,30.10
2015,06,27,14,34,30.10
2015,06,27,14,35,30.10
2015,06,27,14,36,30.20
2015,06,27,14,37,30.30
2015,06,27,14,38,30.40
2015,06,27,14,39,30.60
2015,06,27,14,40,30.70
2015,06,27,14,41,30.60
2015,06,27,14,42,30.60
2015,06,27,14,43,30.70
2015,06,27,14,44,30.70
2015,06,27,14,45,30.70
2015,06,27,14,46,30.80
2015,06,27,14,47,30.80
2015,06,27,14,48,30.90
2015,06,27,14,49,30.90
2015,06,27,14,50,31.00
2015,06,27,14,51,31.00
2015,06,27,14,52,31.10
2015,06,27,14,53,31.10
2015,06,27,14,54,31.10
2015,06,27,14,55,31.00
2015,06,27,14,56,31.00
2015,06,27,14,57,30.90
2015,06,27,14,58,30.90
2015,06,27,14,59,30.90
2015,06,27,15,00,31.00
2015,06,27,15,01,31.00
2015,06,27,15,02,31.10
2015,06,27,15,03,31.20
2015,06,27,15,04,31.30
2015,06,27,15,05,31.40
2015,06,27,15,06,31.50
2015,06,27,15,07,31.60
2015,06,27,15,08,31.70
2015,06,27,15,09,31.70
2015,06,27,15,10,31.70
2015,06,27,15,11,31.70
2015,06,27,15,12,31.70
2015,06,27,15,13,31.80
2015,06,27,15,14,31.80
2015,06,27,15,15,31.80
2015,06,27,15,16,31.80
2015,06,27,15,17,31.80
2015,06,27,15,18,31.80
2015,06,27,15,19,31.70
2015,06,27,15,20,31.60
2015,06,27,15,21,31.60
2015,06,27,15,22,31.50
2015,06,27,15,23,31.60
2015,06,27,15,24,31.60
2015,06,27,15,25,31.60
2015,06,27,15,26,31.60
2015,06,27,15,27,31.50
2015,06,27,15,28,31.40
2015,06,27,15,29,31.40
2015,06,27,15,30,31.40
2015,06,27,15,31,31.50
2015,06,27,15,32,31.50
2015,06,27,15,33,31.60
2015,06,27,15,34,31.50
2015,06,27,15,35,31.50
2015,06,27,15,36,31.50
2015,06,27,15,37,31.50
2015,06,27,15,38,31.40
2015,06,27,15,39,31.50
2015,06,27,15,40,31.50
2015,06,27,15,41,31.60
2015,06,27,15,42,31.60
2015,06,27,15,43,31.60
2015,06,27,15,44,31.50
2015,06,27,15,45,31.50
2015,06,27,15,46,31.50
2015,06,27,15,47,31.40
2015,06,27,15,48,31.30
2015,06,27,15,49,31.20
2015,06,27,15,50,31.10
2015,06,27,15,51,31.10
2015,06,27,15,52,31.10
2015,06,27,15,53,31.20
2015,06,27,15,54,31.20
2015,06,27,15,55,31.20
2015,06,27,15,56,31.20
2015,06,27,15,57,31.30
2015,06,27,15,58,31.20
2015,06,27,15,59,31.20
2015,06,27,16,00,31.20
2015,06,27,16,01,31.20
2015,06,27,16,02,31.10
2015,06,27,16,03,31.20
2015,06,27,16,04,31.20
2015,06,27,16,05,31.20
2015,06,27,16,06,31.30
2015,06,27,16,07,31.30
2015,06,27,16,08,31.30
2015,06,27,16,09,31.40
2015,06,27,16,10,31.40
2015,06,27,16,11,31.40
2015,06,27,16,12,31.40
2015,06,27,16,13,31.40
2015,06,27,16,14,31.30
2015,06,27,16,15,31.30
2015,06,27,16,16,31.30
2015,06,27,16,17,31.20
2015,06,27,16,18,31.20
2015,06,27,16,19,31.20
2015,06,27,16,20,31.20
2015,06,27,16,21,31.30
2015,06,27,16,22,31.20
2015,06,27,16,23,31.20
2015,06,27,16,24,31.10
2015,06,27,16,25,31.10
2015,06,27,16,26,31.00
2015,06,27,16,27,31.00
2015,06,27,16,28,30.90
2015,06,27,16,29,30.90
2015,06,27,16,30,30.80
2015,06,27,16,31,30.80
2015,06,27,16,32,30.80
2015,06,27,16,33,30.90
2015,06,27,16,34,30.90
2015,06,27,16,35,30.90
2015,06,27,16,36,31.00
2015,06,27,16,37,31.00
2015,06,27,16,38,31.00
2015,06,27,16,39,31.00
2015,06,27,16,40,31.10
2015,06,27,16,41,31.20
2015,06,27,16,42,31.20
2015,06,27,16,43,31.30
2015,06,27,16,44,31.30
2015,06,27,16,45,31.40
2015,06,27,16,46,31.50
2015,06,27,16,47,31.60
2015,06,27,16,48,31.70
2015,06,27,16,49,31.80
2015,06,27,16,50,31.90
2015,06,27,16,51,32.00
2015,06,27,16,52,32.10
2015,06,27,16,53,32.10
2015,06,27,16,54,32.10
2015,06,27,16,55,32.10
2015,06,27,16,56,32.10
2015,06,27,16,57,32.10
2015,06,27,16,58,32.10
2015,06,27,16,59,32.10
2015,06,27,17,00,32.10
2015,06,27,17,01,32.10
2015,06,27,17,02,32.10
2015,06,27,17,03,32.10
2015,06,27,17,04,32.20
2015,06,27,17,05,32.20
2015,06,27,17,06,32.30
2015,06,27,17,07,32.40
2015,06,27,17,08,32.40
2015,06,27,17,09,32.50
2015,06,27,17,10,32.50
2015,06,27,17,11,32.50
2015,06,27,17,12,32.60
2015,06,27,17,13,32.60
2015,06,27,17,14,32.60
2015,06,27,17,15,32.60
2015,06,27,17,16,32.60
2015,06,27,17,17,32.60
2015,06,27,17,18,32.70
2015,06,27,17,19,32.70